Weather History for Lancaster, SC

Change the Weather History Date:

Friday, April 26, 2013

  Actual Average (KUZA) Record (KUZA)
Temperature  
Mean Temperature 56 °F -  
Max Temperature 73 °F 75 °F 91 °F (1960)
Min Temperature 39 °F 51 °F 35 °F (1968)
Degree Days  
Heating Degree Days 9    
Growing Degree Days 6 (Base 50)    
Moisture  
Dew Point 43 °F    
Average Humidity 67    
Maximum Humidity 100    
Minimum Humidity 26    
Precipitation  
Precipitation 0.00 in - - ()
Sea Level Pressure  
Sea Level Pressure 30.35 in    
Wind  
Wind Speed 2 mph (ENE)    
Max Wind Speed 10 mph    
Max Gust Speed 16 mph    
Visibility 10 miles    
Events      
Averages and records for this station are not official NWS values.
T = Trace of Precipitation, MM = Missing Value Source: NWS Daily Summary

Daily Weather History Graph

Daily Weather History Graph

Search for Another Location

Airport:

Trip Planner

Search our weather history database for the weather conditions in past years. The results will help you decide how hot, cold, wet, or windy it might be!

Date:

Astronomy

Apr. 26, 2013 Rise Set
Actual Time 6:38 AM EDT 8:04 PM EDT
Civil Twilight 6:11 AM EDT 8:31 PM EDT
Nautical Twilight 5:39 AM EDT 9:03 PM EDT
Astronomical Twilight 5:06 AM EDT 9:36 PM EDT
Moon 9:22 PM EDT (4/26) 7:06 AM EDT (4/26)
Length of Visible Light 14h 19m
Length of Day
13h 26m
Full, 99% of the Moon is Illuminated
Apr 26
Full
May 2
Last Quarter
May 9
New
May 18
First Quarter
May 25
Full

Hourly Weather History & Observations

Time (EDT) Temp. Windchill Dew Point Humidity Pressure Visibility Wind Dir Wind Speed Gust Speed Precip Events Conditions
12:15 AM 46.4 °F - 46.4 °F 100% 30.27 in 10.0 mi Calm Calm - N/A   Clear
12:35 AM 44.6 °F - 44.6 °F 100% 30.27 in 10.0 mi Calm Calm - N/A   Clear
12:55 AM 44.6 °F - 44.6 °F 100% 30.28 in 10.0 mi Calm Calm - N/A   Clear
1:15 AM 44.6 °F - 44.6 °F 100% 30.28 in 9.0 mi Calm Calm - N/A   Clear
1:35 AM 44.6 °F - 44.6 °F 100% 30.29 in 10.0 mi Calm Calm - N/A   Clear
1:55 AM 46.4 °F 43.5 °F 46.4 °F 100% 30.29 in 10.0 mi NNE 5.8 mph - N/A   Clear
2:15 AM 44.6 °F - 44.6 °F 100% 30.29 in 10.0 mi Calm Calm - N/A   Clear
2:35 AM 46.4 °F - 44.6 °F 93% 30.29 in 10.0 mi Calm Calm - N/A   Clear
2:55 AM 44.6 °F - 44.6 °F 100% 30.30 in 10.0 mi Calm Calm - N/A   Clear
3:15 AM 44.6 °F - 44.6 °F 100% 30.29 in 10.0 mi Calm Calm - N/A   Clear
3:35 AM 42.8 °F - 42.8 °F 100% 30.30 in 10.0 mi Calm Calm - N/A   Clear
3:55 AM 41.0 °F - 41.0 °F 100% 30.30 in 10.0 mi Calm Calm - N/A   Clear
4:15 AM 41.0 °F - 41.0 °F 100% 30.30 in 10.0 mi Calm Calm - N/A   Clear
4:35 AM 41.0 °F - 41.0 °F 100% 30.31 in 10.0 mi Calm Calm - N/A   Clear
4:55 AM 42.8 °F - 41.0 °F 93% 30.31 in 10.0 mi Calm Calm - N/A   Clear
5:15 AM 41.0 °F - 41.0 °F 100% 30.32 in 10.0 mi Calm Calm - N/A   Clear
5:35 AM 41.0 °F - 41.0 °F 100% 30.33 in 10.0 mi Calm Calm - N/A   Clear
5:55 AM 39.2 °F - 39.2 °F 100% 30.33 in 10.0 mi Calm Calm - N/A   Clear
6:15 AM 39.2 °F - 39.2 °F 100% 30.33 in 10.0 mi Calm Calm - N/A   Clear
6:35 AM 39.2 °F - 39.2 °F 100% 30.34 in 10.0 mi Calm Calm - N/A   Clear
6:55 AM 39.2 °F - 39.2 °F 100% 30.35 in 10.0 mi Calm Calm - N/A   Clear
7:15 AM 41.0 °F - 41.0 °F 100% 30.36 in 10.0 mi Calm Calm - N/A   Clear
7:55 AM 44.6 °F 42.2 °F 41.0 °F 87% 30.38 in 10.0 mi NE 4.6 mph - N/A   Clear
8:15 AM 46.4 °F 44.3 °F 41.0 °F 81% 30.39 in 10.0 mi NE 4.6 mph - N/A   Clear
8:35 AM 50.0 °F - 41.0 °F 71% 30.40 in 10.0 mi NE 6.9 mph - N/A   Clear
8:55 AM 55.4 °F - 39.2 °F 54% 30.41 in 10.0 mi NE 5.8 mph - N/A   Clear
9:15 AM 57.2 °F - 37.4 °F 48% 30.41 in 10.0 mi NE 6.9 mph - N/A   Clear
9:35 AM 59.0 °F - 35.6 °F 42% 30.42 in 10.0 mi NE 8.1 mph - N/A   Clear
9:55 AM 62.6 °F - 33.8 °F 34% 30.42 in 10.0 mi ENE 8.1 mph 16.1 mph N/A   Clear
10:15 AM 62.6 °F - 32.0 °F 32% 30.43 in 10.0 mi NE 10.4 mph - N/A   Clear
10:35 AM 64.4 °F - 35.6 °F 34% 30.43 in 10.0 mi NNE 9.2 mph - N/A   Clear
10:55 AM 64.4 °F - 32.0 °F 30% 30.43 in 10.0 mi ENE 5.8 mph - N/A   Clear
11:15 AM 66.2 °F - 32.0 °F 28% 30.43 in 10.0 mi NE 8.1 mph 16.1 mph N/A   Clear
11:35 AM 68.0 °F - 32.0 °F 26% 30.42 in 10.0 mi ENE 8.1 mph - N/A   Clear
11:55 AM 68.0 °F - 32.0 °F 26% 30.41 in 10.0 mi NE 8.1 mph - N/A   Clear
12:15 PM 68.0 °F - 32.0 °F 26% 30.41 in 10.0 mi ESE 5.8 mph - N/A   Clear
12:35 PM 68.0 °F - 32.0 °F 26% 30.41 in 10.0 mi NE 4.6 mph - N/A   Clear
12:55 PM 68.0 °F - 35.6 °F 30% 30.40 in 10.0 mi ENE 5.8 mph - N/A   Clear
1:15 PM 68.0 °F - 37.4 °F 33% 30.40 in 10.0 mi East 4.6 mph - N/A   Clear
1:35 PM 69.8 °F - 35.6 °F 28% 30.39 in 10.0 mi Calm Calm - N/A   Clear
1:55 PM 71.6 °F - 39.2 °F 31% 30.39 in 10.0 mi NNE 3.5 mph - N/A   Clear
2:15 PM 71.6 °F - 37.4 °F 29% 30.38 in 10.0 mi WNW 3.5 mph - N/A   Clear
2:35 PM 71.6 °F - 39.2 °F 31% 30.38 in 10.0 mi South 5.8 mph - N/A   Clear
2:55 PM 73.4 °F - 41.0 °F 31% 30.37 in 10.0 mi NE 5.8 mph - N/A   Clear
3:15 PM 73.4 °F - 41.0 °F 31% 30.36 in 10.0 mi Calm Calm - N/A   Clear
3:35 PM 71.6 °F - 42.8 °F 35% 30.36 in 10.0 mi SE 4.6 mph - N/A   Clear
3:55 PM 69.8 °F - 42.8 °F 38% 30.36 in 10.0 mi Calm Calm - N/A   Partly Cloudy
4:15 PM 73.4 °F - 41.0 °F 31% 30.34 in 10.0 mi Calm Calm - N/A   Clear
4:35 PM 73.4 °F - 42.8 °F 33% 30.33 in 10.0 mi Calm Calm - N/A   Clear
4:55 PM 73.4 °F - 42.8 °F 33% 30.33 in 10.0 mi ESE 3.5 mph - N/A   Scattered Clouds
5:15 PM 71.6 °F - 44.6 °F 38% 30.33 in 10.0 mi Calm Calm - N/A   Scattered Clouds
5:35 PM 71.6 °F - 42.8 °F 35% 30.32 in 10.0 mi Calm Calm - N/A   Clear
5:55 PM 73.4 °F - 42.8 °F 33% 30.31 in 10.0 mi Calm Calm - N/A   Clear
6:15 PM 71.6 °F - 42.8 °F 35% 30.32 in 10.0 mi SE 3.5 mph - N/A   Clear
6:35 PM 68.0 °F - 46.4 °F 46% 30.32 in 10.0 mi Calm Calm - N/A   Clear
6:55 PM 69.8 °F - 46.4 °F 43% 30.32 in 10.0 mi SSE 3.5 mph - N/A   Clear
7:15 PM 68.0 °F - 46.4 °F 46% 30.32 in 10.0 mi Calm Calm - N/A   Clear
7:35 PM 66.2 °F - 50.0 °F 56% 30.33 in 10.0 mi Calm Calm - N/A   Clear
7:55 PM 62.6 °F - 50.0 °F 63% 30.34 in 10.0 mi Calm Calm - N/A   Clear
8:15 PM 59.0 °F - 53.6 °F 82% 30.35 in 10.0 mi Calm Calm - N/A   Clear
8:35 PM 57.2 °F - 55.4 °F 94% 30.35 in 10.0 mi Calm Calm - N/A   Clear
8:55 PM 57.2 °F - 53.6 °F 88% 30.35 in 10.0 mi Calm Calm - N/A   Clear
9:15 PM 55.4 °F - 53.6 °F 94% 30.36 in 10.0 mi Calm Calm - N/A   Clear
9:35 PM 57.2 °F - 53.6 °F 88% 30.37 in 10.0 mi Calm Calm - N/A   Clear
9:55 PM 55.4 °F - 53.6 °F 94% 30.36 in 10.0 mi Calm Calm - N/A   Clear
10:15 PM 57.2 °F - 53.6 °F 88% 30.36 in 10.0 mi Calm Calm - N/A   Clear
10:35 PM 55.4 °F - 55.4 °F 100% 30.35 in 10.0 mi Calm Calm - N/A   Clear
10:55 PM 53.6 °F - 53.6 °F 100% 30.35 in 10.0 mi Calm Calm - N/A   Clear
11:15 PM 53.6 °F - 53.6 °F 100% 30.34 in 10.0 mi Calm Calm - N/A   Clear
11:35 PM 53.6 °F - 53.6 °F 100% 30.33 in 10.0 mi Calm Calm - N/A   Clear
11:55 PM 53.6 °F - 53.6 °F 100% 30.33 in 10.0 mi NE 3.5 mph - N/A   Clear